Main page
METAR-TAF:

METAR-TAF

Airports :

Leconfield, England

latitude: 53-52-37N, longitude: 0-26-15W, elevation: 7 m

Current weather observation

The report was made 23 minutes ago, at 23:50 UTC
Wind 3 kt from the West/Southwest
Temperature 9°C
Humidity 87%
Pressure 1018 hPa
Visibility 10 km or more

METAR: EGXV 192350Z AUTO 24003KT 9999 SCT036/// 09/07 Q1018

Time: 01:13 (00:13 UTC)


TAF: missing

Weather observations and forecasts of more than 4000 airports (METAR and TAF reports).

The available stations are represented by yellow and red dots on the map.

Hover mouse over dot to see the name of the station.

Then click to see weather observations and forecasts.

To change the map : click on the green buttons with a black cross to zoom in, on the green button with a dash to zoom out, or on the green arrows for adjacent maps.


METAR-TAF: